Location: LewisvilleTX
(33.0462°N, 96.9942°W)
Time: 11:30:27
(UTC+00:00)

Envisat - Pass Details

Date: 27 September 2021
Orbit: 764 x 766 km, 98.2° (Epoch: 20 October)

Event Time Altitude Azimuth Distance (km) Brightness Sun altitude
Rises 11:06:35 0° 19° (NNE) 3,233 6.6 -16.1°
Reaches altitude 10° 11:08:59 10° 26° (NNE) 2,303 5.9 -15.6°
Maximum altitude 11:13:51 46° 99° (E) 1,013 4.1 -14.6°
Drops below altitude 10° 11:18:42 10° 173° (S) 2,290 5.5 -13.6°
Sets 11:21:04 0° 179° (S) 3,212 6.2 -13.1°
